Location: Azenweiler
(47.8027°N, 9.4096°E)
Time: 04:59:22
(UTC+00:00)

Daily predictions for brighter satellites

Satellite Brightness Start Highest point End
(mag) Time Altitude Azimuth Time Altitude Azimuth Time Altitude Azimuth
USA 59 Rocket 3.1 03:08:36 11° ESE 03:08:36 11° ESE 03:08:47 10° ESE
SL-16 R/B 3.8 03:19:10 28° NE 03:19:29 28° NE 03:24:20 10° ESE
Cosmos 2082 Rocket 3.4 03:23:08 37° ENE 03:23:08 37° ENE 03:26:49 10° NE
USA 234 4.0 03:23:37 10° NE 03:28:36 42° NNE 03:28:36 42° NNE
Cosmos 1980 Rocket 4.3 03:44:55 15° S 03:44:55 15° S 03:45:46 10° S
Cosmos 2369 4.4 03:51:16 47° SSE 03:51:16 47° SSE 03:55:11 10° SSE
NOSS 3-1 (C) 4.0 03:52:30 61° NNW 03:54:03 82° NE 04:02:51 10° SE
Cosmos 841 Rocket 3.8 04:00:24 57° SSE 04:01:07 63° ESE 04:06:19 10° NNE
COSMOS 2455 2.9 04:07:00 61° SSW 04:07:00 61° SSW 04:12:09 10° SSE
Cosmos 2360 Rocket 3.5 04:09:27 21° N 04:12:27 35° NE 04:17:33 10° ESE
Cosmos 2333 Rocket 3.0 04:11:00 29° N 04:13:35 49° NE 04:19:08 10° SE
ATLAS 3B R/B 4.3 04:14:24 21° NNW 04:17:54 28° NNE 04:24:26 10° ENE
Nadezhda 4 Rocket 3.9 04:11:45 10° S 04:18:04 89° ESE 04:24:22 10° N
Cosmos 1892 Rocket 4.2 04:18:43 10° S 04:22:57 54° E 04:27:17 10° NNE
Cosmos-2242 4.3 04:24:05 17° NNE 04:26:58 39° ENE 04:30:54 10° SE
Cosmos 1898 Rocket 3.9 04:29:28 46° SW 04:29:28 46° SW 04:33:34 10° S
Cosmos 2219 Rocket 3.8 04:25:49 14° N 04:29:53 30° NE 04:34:48 10° ESE
COSMO-SKYMED 1 2.9 04:27:06 10° SSE 04:31:08 58° ENE 04:32:40 34° N
IRS-1D 3.5 04:28:52 10° NNE 04:33:54 79° ESE 04:38:59 10° SSW
Cosmos 2322 Rocket 2.8 04:32:25 22° NNW 04:36:03 54° ENE 04:41:35 10° SE
Orbus 7S? 4.0 04:48:21 30° NE 04:48:21 30° NE 04:50:27 10° E
Cosmos 1937 Rocket 3.6 04:49:26 46° W 04:49:48 47° WSW 04:54:41 10° S
Cosmos 858 Rocket 4.4 04:49:23 40° NW 04:51:08 64° WSW 04:56:14 10° S
BREEZE M DEB (TANK) 4.1 04:50:05 12° S 04:51:24 17° SE 04:53:36 10° E
USA 59 Rocket 1.4 04:54:18 23° SW 04:54:18 23° SW 04:57:24 10° S
Meteor 2-3 Rocket 3.6 04:48:11 10° SSW 04:53:54 73° WNW 04:59:35 10° N
BREEZE-M DEB (TANK) 3.8 04:55:04 25° E 04:55:04 25° E 04:56:04 10° E
Meteor 1-26 Rocket 4.2 04:49:50 10° N 04:55:24 85° E 05:01:06 10° SSE
Cosmos 1484 Rocket 3.8 04:52:48 10° NNE 04:56:04 41° E 04:59:16 10° S
Meteor 2-20 Rocket 4.3 04:51:28 10° N 04:57:16 80° E 05:02:57 10° SSE
Cosmos 2058 Rocket 3.0 04:54:41 17° N 04:58:07 90° SSE 05:02:31 10° S
SKYMED 2 3.7 04:55:20 10° S 04:59:32 48° W 05:00:15 44° WNW
COSMOS 2406 3.2 04:55:16 15° SW 04:59:53 59° WNW 05:05:31 10° NNE
NOSS 3-1 (A) 4.0 04:57:15 24° NW 05:02:05 85° SW 05:10:59 10° SE
SL-16 R/B 2.2 05:01:03 28° NW 05:03:58 60° WSW 05:09:31 10° S
Cosmos 2082 Rocket 2.8 05:05:01 32° WNW 05:05:41 33° NW 05:10:44 10° NNE
CZ-4 R/B 3.7 05:02:46 10° N 05:07:20 59° WNW 05:11:51 10° SSW
Cosmos 1627 Rocket 4.3 05:02:36 10° SSW 05:08:41 72° W 05:14:51 10° N
SeaSat 1 4.2 05:05:44 10° N 05:07:30 15° NNW 05:07:30 15° NNW
USA 234 4.0 05:06:02 10° ENE 05:12:04 41° N 05:15:57 21° NW
BREEZE-M DEB (TANK) 2.6 05:12:02 55° WNW 05:12:29 72° NNW 05:14:45 10° ENE
Okean 1 2.8 05:11:24 24° NNW 05:13:24 75° W 05:16:57 10° S
Helios 1A Rocket 2.6 05:12:18 10° S 05:15:30 45° W 05:15:55 42° WNW
Cosmos 1814 Rocket 4.3 05:11:09 10° SSW 05:16:20 71° ESE 05:21:37 10° NNE
NOAA 12 4.2 05:12:32 10° N 05:17:39 51° WNW 05:22:43 10° SW
DMSP B5D1-3 4.4 05:14:01 10° SSE 05:19:08 86° WSW 05:24:17 10° NNW
CBERS-1 4.4 05:16:36 10° NNE 05:21:42 65° ESE 05:26:44 10° S
Cosmos 2285 Rocket 4.0 05:17:31 10° NNW 05:23:56 89° ENE 05:30:22 10° SSE
BREEZE-M DEB (TANK) 2.8 05:23:26 36° WNW 05:24:22 65° N 05:29:23 10° E
BREEZE-M DEB (TANK) 3.0 05:24:35 26° WSW 05:26:13 56° S 05:32:59 10° ESE
Cosmos 2278 4.0 05:24:16 19° NW 05:27:57 45° WSW 05:33:16 10° S
IRIDIUM 103 4.3 05:24:02 10° S 05:29:16 87° E 05:34:31 10° N
SL-4 R/B 1.3 05:28:33 32° WNW 05:29:54 84° NNE 05:33:05 10° ESE
Cosmos 2151 4.1 05:27:19 10° SSE 05:31:13 45° E 05:35:09 10° NNE
Cosmos 1758 Rocket 3.6 05:28:33 10° S 05:32:59 82° E 05:37:24 10° NNE
Cosmos 2026 Rocket 4.2 05:28:09 10° SSW 05:33:56 45° WNW 05:39:48 10° N
NOSS 8 (A) 4.0 05:33:10 28° NW 05:34:34 75° SW 05:37:50 10° SE
Cosmos 2221 2.9 05:31:40 10° N 05:35:47 62° ENE 05:39:52 10° SSE
Thor Agena Rocket 4.0 05:34:50 10° NNE 05:39:53 65° ESE 05:44:51 10° S
Cosmos 405 Rocket 2.2 05:39:30 10° SSW 05:42:43 64° WNW 05:46:00 10° N
Cosmos 1707 3.3 05:43:21 10° N 05:46:24 45° ENE 05:49:24 10° SSE
IRIDIUM 106 4.3 05:42:25 10° SSW 05:47:36 66° W 05:52:49 10° N
Cosmos 158 Rocket 3.9 05:43:06 10° SSW 05:48:26 77° WNW 05:53:41 10° NNE
KORONAS-FOTON 4.0 05:50:39 10° N 05:54:01 60° E 05:57:20 10° SSE
Cosmos 1626 Rocket 3.7 05:51:44 10° SSW 05:56:00 50° WNW 06:00:19 10° N
Cosmos 2360 Rocket 2.6 05:51:13 10° NW 05:56:34 45° WSW 06:01:52 10° S
S3M 4.1 05:50:27 10° N 05:56:41 79° E 06:02:48 10° SSE
Cosmos 2333 Rocket 3.0 05:53:03 12° NW 05:57:40 31° WSW 06:02:37 10° SSW
Cosmos 1553 Rocket 4.2 05:52:01 10° NNW 05:58:11 52° W 06:04:21 10° SSW
SMAP 3.0 05:55:33 10° NNE 06:00:14 85° WNW 06:04:54 10° SSW
Cosmos 1833 4.2 05:54:48 10° SSW 06:00:27 78° WNW 06:06:12 10° NNE
SL-08 R/B 4.2 05:58:24 10° SE 06:02:49 48° ENE 06:07:19 10° N
Cosmos-2242 4.3 06:00:34 10° NW 06:03:43 21° W 06:06:51 10° SW
Cosmos 1842 3.6 06:01:22 10° N 06:04:39 55° ENE 06:07:54 10° SSE
Landsat 7 3.8 06:00:50 10° NNE 06:05:32 88° ESE 06:10:12 10° SSW
COSMO-SKYMED 1 4.2 06:04:30 10° SW 06:06:48 15° W 06:08:59 11° WNW
Cosmos 2237 Rocket 3.9 06:02:31 10° N 06:07:17 27° NE 06:12:03 10° ESE
Cosmos 1125 Rocket 3.5 06:03:16 10° NNW 06:08:34 80° WSW 06:13:46 10° SSE
ATLAS 3B R/B 3.4 06:02:29 10° NW 06:10:19 61° NE 06:17:45 10° ESE
Meteor 1-10 Rocket 4.4 06:04:56 10° NNW 06:10:52 84° W 06:16:48 10° S
BREEZE-M DEB (TANK) 4.0 06:09:13 10° SW 06:11:25 38° SSE 06:14:29 10° ENE
Cosmos 2219 Rocket 2.4 06:08:36 10° NW 06:14:07 55° WSW 06:19:35 10° S
Meteor 1-19 Rocket 4.3 06:10:28 10° NNW 06:16:14 72° W 06:22:08 10° S
Cosmos 2322 Rocket 3.2 06:15:01 10° NW 06:19:44 27° WSW 06:24:26 10° SSW
BREEZE-M DEB (TANK) 3.9 06:05:02 10° W 06:21:26 79° N 06:25:32 10° E
Okean 1-7 Rocket 3.6 06:21:17 10° SSW 06:25:45 67° W 06:30:13 10° N
